﻿測定場所 (Monitoring sites),日付 (Measurement date),時間 (Measurement time),線量率 最大値 (max) μGy/h,線量率 最小値 (min) μGy/h,線量率 平均値 (average) μGy/h,
足立 (Adachi),2013-02-03,23:01～24:00,0.0599,0.0529,0.0560,
足立 (Adachi),2013-02-03,22:01～23:00,0.0606,0.0533,0.0562,
足立 (Adachi),2013-02-03,21:01～22:00,0.0594,0.0525,0.0563,
足立 (Adachi),2013-02-03,20:01～21:00,0.0607,0.0536,0.0564,
足立 (Adachi),2013-02-03,19:01～20:00,0.0592,0.0540,0.0561,
足立 (Adachi),2013-02-03,18:01～19:00,0.0600,0.0526,0.0560,
足立 (Adachi),2013-02-03,17:01～18:00,0.0596,0.0530,0.0562,
足立 (Adachi),2013-02-03,16:01～17:00,0.0597,0.0536,0.0565,
足立 (Adachi),2013-02-03,15:01～16:00,0.0604,0.0536,0.0566,
足立 (Adachi),2013-02-03,14:01～15:00,0.0593,0.0518,0.0563,
足立 (Adachi),2013-02-03,13:01～14:00,0.0593,0.0528,0.0566,
足立 (Adachi),2013-02-03,12:01～13:00,0.0609,0.0525,0.0567,
足立 (Adachi),2013-02-03,11:01～12:00,0.0602,0.0529,0.0567,
足立 (Adachi),2013-02-03,10:01～11:00,0.0607,0.0537,0.0566,
足立 (Adachi),2013-02-03,09:01～10:00,0.0592,0.0530,0.0565,
足立 (Adachi),2013-02-03,08:01～09:00,0.0594,0.0531,0.0559,
足立 (Adachi),2013-02-03,07:01～08:00,0.0585,0.0523,0.0554,
足立 (Adachi),2013-02-03,06:01～07:00,0.0587,0.0520,0.0562,
足立 (Adachi),2013-02-03,05:01～06:00,0.0591,0.0529,0.0558,
足立 (Adachi),2013-02-03,04:01～05:00,0.0592,0.0525,0.0565,
足立 (Adachi),2013-02-03,03:01～04:00,0.0612,0.0529,0.0571,
足立 (Adachi),2013-02-03,02:01～03:00,0.0615,0.0538,0.0568,
足立 (Adachi),2013-02-03,01:01～02:00,0.0617,0.0546,0.0574,
足立 (Adachi),2013-02-03,00:01～01:00,0.0610,0.0531,0.0573,
足立 (Adachi),2013-02-02,23:01～24:00,0.0598,0.0534,0.0565,
足立 (Adachi),2013-02-02,22:01～23:00,0.0603,0.0534,0.0563,
足立 (Adachi),2013-02-02,21:01～22:00,0.0597,0.0524,0.0560,
足立 (Adachi),2013-02-02,20:01～21:00,0.0590,0.0533,0.0561,
足立 (Adachi),2013-02-02,19:01～20:00,0.0607,0.0518,0.0559,
足立 (Adachi),2013-02-02,18:01～19:00,0.0594,0.0525,0.0556,
足立 (Adachi),2013-02-02,17:01～18:00,0.0589,0.0529,0.0557,
足立 (Adachi),2013-02-02,16:01～17:00,0.0594,0.0521,0.0557,
足立 (Adachi),2013-02-02,15:01～16:00,0.0601,0.0537,0.0564,
足立 (Adachi),2013-02-02,14:01～15:00,0.0601,0.0525,0.0563,
足立 (Adachi),2013-02-02,13:01～14:00,0.0604,0.0541,0.0568,
足立 (Adachi),2013-02-02,12:01～13:00,0.0599,0.0539,0.0568,
足立 (Adachi),2013-02-02,11:01～12:00,0.0603,0.0521,0.0572,
足立 (Adachi),2013-02-02,10:01～11:00,0.0601,0.0530,0.0565,
足立 (Adachi),2013-02-02,09:01～10:00,0.0607,0.0530,0.0568,
足立 (Adachi),2013-02-02,08:01～09:00,0.0582,0.0511,0.0546,
足立 (Adachi),2013-02-02,07:01～08:00,0.0570,0.0511,0.0540,
足立 (Adachi),2013-02-02,06:01～07:00,0.0584,0.0494,0.0546,
足立 (Adachi),2013-02-02,05:01～06:00,0.0589,0.0523,0.0553,
足立 (Adachi),2013-02-02,04:01～05:00,0.0578,0.0512,0.0547,
足立 (Adachi),2013-02-02,03:01～04:00,0.0596,0.0527,0.0560,
足立 (Adachi),2013-02-02,02:01～03:00,0.0599,0.0514,0.0557,
足立 (Adachi),2013-02-02,01:01～02:00,0.0590,0.0538,0.0566,
足立 (Adachi),2013-02-02,00:01～01:00,0.0605,0.0535,0.0567,
足立 (Adachi),2013-02-01,23:01～24:00,0.0593,0.0531,0.0561,
足立 (Adachi),2013-02-01,22:01～23:00,0.0589,0.0529,0.0557,
足立 (Adachi),2013-02-01,21:01～22:00,0.0579,0.0528,0.0554,
足立 (Adachi),2013-02-01,20:01～21:00,0.0594,0.0524,0.0558,
足立 (Adachi),2013-02-01,19:01～20:00,0.0586,0.0522,0.0555,
足立 (Adachi),2013-02-01,18:01～19:00,0.0592,0.0519,0.0559,
足立 (Adachi),2013-02-01,17:01～18:00,0.0594,0.0521,0.0551,
足立 (Adachi),2013-02-01,16:01～17:00,0.0583,0.0517,0.0552,
足立 (Adachi),2013-02-01,15:01～16:00,0.0586,0.0507,0.0550,
足立 (Adachi),2013-02-01,14:01～15:00,0.0591,0.0517,0.0546,
足立 (Adachi),2013-02-01,13:01～14:00,0.0600,0.0516,0.0558,
足立 (Adachi),2013-02-01,12:01～13:00,0.0594,0.0525,0.0561,
足立 (Adachi),2013-02-01,11:01～12:00,0.0593,0.0531,0.0561,
足立 (Adachi),2013-02-01,10:01～11:00,0.0621,0.0536,0.0566,
足立 (Adachi),2013-02-01,09:01～10:00,0.0613,0.0538,0.0562,
足立 (Adachi),2013-02-01,08:01～09:00,0.0599,0.0514,0.0555,
足立 (Adachi),2013-02-01,07:01～08:00,0.0585,0.0511,0.0545,
足立 (Adachi),2013-02-01,06:01～07:00,0.0588,0.0520,0.0556,
足立 (Adachi),2013-02-01,05:01～06:00,0.0597,0.0522,0.0560,
足立 (Adachi),2013-02-01,04:01～05:00,0.0588,0.0532,0.0560,
足立 (Adachi),2013-02-01,03:01～04:00,0.0594,0.0531,0.0558,
足立 (Adachi),2013-02-01,02:01～03:00,0.0600,0.0520,0.0558,
足立 (Adachi),2013-02-01,01:01～02:00,0.0594,0.0526,0.0557,
足立 (Adachi),2013-02-01,00:01～01:00,0.0578,0.0515,0.0545,
足立 (Adachi),2013-01-31,23:01～24:00,0.0580,0.0513,0.0550,
足立 (Adachi),2013-01-31,22:01～23:00,0.0579,0.0517,0.0548,
足立 (Adachi),2013-01-31,21:01～22:00,0.0576,0.0508,0.0549,
足立 (Adachi),2013-01-31,20:01～21:00,0.0580,0.0508,0.0546,
足立 (Adachi),2013-01-31,19:01～20:00,0.0581,0.0517,0.0552,
足立 (Adachi),2013-01-31,18:01～19:00,0.0583,0.0510,0.0549,
足立 (Adachi),2013-01-31,17:01～18:00,0.0580,0.0513,0.0547,
足立 (Adachi),2013-01-31,16:01～17:00,0.0575,0.0510,0.0550,
足立 (Adachi),2013-01-31,15:01～16:00,0.0604,0.0522,0.0553,
足立 (Adachi),2013-01-31,14:01～15:00,0.0590,0.0515,0.0551,
足立 (Adachi),2013-01-31,13:01～14:00,0.0588,0.0523,0.0553,
足立 (Adachi),2013-01-31,12:01～13:00,0.0584,0.0514,0.0549,
足立 (Adachi),2013-01-31,11:01～12:00,0.0584,0.0514,0.0552,
足立 (Adachi),2013-01-31,10:01～11:00,0.0582,0.0525,0.0550,
足立 (Adachi),2013-01-31,09:01～10:00,0.0580,0.0514,0.0550,
足立 (Adachi),2013-01-31,08:01～09:00,0.0574,0.0502,0.0535,
足立 (Adachi),2013-01-31,07:01～08:00,0.0564,0.0486,0.0530,
足立 (Adachi),2013-01-31,06:01～07:00,0.0562,0.0486,0.0530,
足立 (Adachi),2013-01-31,05:01～06:00,0.0568,0.0503,0.0530,
足立 (Adachi),2013-01-31,04:01～05:00,0.0560,0.0499,0.0531,
足立 (Adachi),2013-01-31,03:01～04:00,0.0580,0.0492,0.0540,
足立 (Adachi),2013-01-31,02:01～03:00,0.0587,0.0519,0.0555,
足立 (Adachi),2013-01-31,01:01～02:00,0.0589,0.0526,0.0555,
足立 (Adachi),2013-01-31,00:01～01:00,0.0587,0.0524,0.0556,
足立 (Adachi),2013-01-30,23:01～24:00,0.0601,0.0534,0.0560,
足立 (Adachi),2013-01-30,22:01～23:00,0.0589,0.0533,0.0562,
足立 (Adachi),2013-01-30,21:01～22:00,0.0613,0.0529,0.0561,
足立 (Adachi),2013-01-30,20:01～21:00,0.0584,0.0514,0.0558,
足立 (Adachi),2013-01-30,19:01～20:00,0.0600,0.0522,0.0558,
足立 (Adachi),2013-01-30,18:01～19:00,0.0587,0.0525,0.0558,
足立 (Adachi),2013-01-30,17:01～18:00,0.0586,0.0512,0.0556,
足立 (Adachi),2013-01-30,16:01～17:00,0.0598,0.0527,0.0554,
足立 (Adachi),2013-01-30,15:01～16:00,0.0584,0.0513,0.0555,
足立 (Adachi),2013-01-30,14:01～15:00,0.0588,0.0525,0.0552,
足立 (Adachi),2013-01-30,13:01～14:00,0.0591,0.0527,0.0559,
足立 (Adachi),2013-01-30,12:01～13:00,0.0591,0.0511,0.0553,
足立 (Adachi),2013-01-30,11:01～12:00,0.0596,0.0519,0.0553,
足立 (Adachi),2013-01-30,10:01～11:00,0.0615,0.0516,0.0558,
足立 (Adachi),2013-01-30,09:01～10:00,0.0589,0.0514,0.0555,
足立 (Adachi),2013-01-30,08:01～09:00,0.0586,0.0513,0.0552,
足立 (Adachi),2013-01-30,07:01～08:00,0.0583,0.0518,0.0549,
足立 (Adachi),2013-01-30,06:01～07:00,0.0596,0.0521,0.0545,
足立 (Adachi),2013-01-30,05:01～06:00,0.0584,0.0504,0.0547,
足立 (Adachi),2013-01-30,04:01～05:00,0.0587,0.0533,0.0560,
足立 (Adachi),2013-01-30,03:01～04:00,0.0589,0.0525,0.0555,
足立 (Adachi),2013-01-30,02:01～03:00,0.0577,0.0525,0.0554,
足立 (Adachi),2013-01-30,01:01～02:00,0.0594,0.0520,0.0550,
足立 (Adachi),2013-01-30,00:01～01:00,0.0576,0.0528,0.0550,
足立 (Adachi),2013-01-29,23:01～24:00,0.0586,0.0520,0.0549,
足立 (Adachi),2013-01-29,22:01～23:00,0.0583,0.0514,0.0551,
足立 (Adachi),2013-01-29,21:01～22:00,0.0583,0.0527,0.0550,
足立 (Adachi),2013-01-29,20:01～21:00,0.0588,0.0512,0.0555,
足立 (Adachi),2013-01-29,19:01～20:00,0.0587,0.0522,0.0554,
足立 (Adachi),2013-01-29,18:01～19:00,0.0581,0.0512,0.0550,
足立 (Adachi),2013-01-29,17:01～18:00,0.0578,0.0526,0.0552,
足立 (Adachi),2013-01-29,16:01～17:00,0.0581,0.0505,0.0552,
足立 (Adachi),2013-01-29,15:01～16:00,0.0589,0.0520,0.0555,
足立 (Adachi),2013-01-29,14:01～15:00,0.0578,0.0521,0.0550,
足立 (Adachi),2013-01-29,13:01～14:00,0.0589,0.0519,0.0556,
足立 (Adachi),2013-01-29,12:01～13:00,0.0583,0.0524,0.0550,
足立 (Adachi),2013-01-29,11:01～12:00,0.0579,0.0520,0.0550,
足立 (Adachi),2013-01-29,10:01～11:00,0.0595,0.0519,0.0553,
足立 (Adachi),2013-01-29,09:01～10:00,0.0599,0.0518,0.0552,
足立 (Adachi),2013-01-29,08:01～09:00,0.0570,0.0504,0.0538,
足立 (Adachi),2013-01-29,07:01～08:00,0.0566,0.0481,0.0527,
足立 (Adachi),2013-01-29,06:01～07:00,0.0581,0.0511,0.0544,
足立 (Adachi),2013-01-29,05:01～06:00,0.0582,0.0521,0.0544,
足立 (Adachi),2013-01-29,04:01～05:00,0.0549,0.0490,0.0521,
足立 (Adachi),2013-01-29,03:01～04:00,0.0549,0.0485,0.0519,
足立 (Adachi),2013-01-29,02:01～03:00,0.0556,0.0498,0.0521,
足立 (Adachi),2013-01-29,01:01～02:00,0.0563,0.0489,0.0522,
足立 (Adachi),2013-01-29,00:01～01:00,0.0559,0.0495,0.0521,
足立 (Adachi),2013-01-28,23:01～24:00,0.0586,0.0511,0.0546,
足立 (Adachi),2013-01-28,22:01～23:00,0.0578,0.0513,0.0551,
足立 (Adachi),2013-01-28,21:01～22:00,0.0591,0.0518,0.0554,
足立 (Adachi),2013-01-28,20:01～21:00,0.0605,0.0507,0.0552,
足立 (Adachi),2013-01-28,19:01～20:00,0.0588,0.0517,0.0549,
足立 (Adachi),2013-01-28,18:01～19:00,0.0575,0.0510,0.0548,
足立 (Adachi),2013-01-28,17:01～18:00,0.0586,0.0515,0.0549,
足立 (Adachi),2013-01-28,16:01～17:00,0.0582,0.0521,0.0549,
足立 (Adachi),2013-01-28,15:01～16:00,0.0594,0.0513,0.0555,
足立 (Adachi),2013-01-28,14:01～15:00,0.0589,0.0516,0.0551,
足立 (Adachi),2013-01-28,13:01～14:00,0.0586,0.0518,0.0550,
足立 (Adachi),2013-01-28,12:01～13:00,0.0600,0.0526,0.0555,
足立 (Adachi),2013-01-28,11:01～12:00,0.0582,0.0521,0.0549,
足立 (Adachi),2013-01-28,10:01～11:00,0.0585,0.0515,0.0552,
足立 (Adachi),2013-01-28,09:01～10:00,0.0607,0.0524,0.0562,
足立 (Adachi),2013-01-28,08:01～09:00,0.0622,0.0542,0.0576,
足立 (Adachi),2013-01-28,07:01～08:00,0.0600,0.0520,0.0558,
足立 (Adachi),2013-01-28,06:01～07:00,0.0585,0.0506,0.0540,
足立 (Adachi),2013-01-28,05:01～06:00,0.0611,0.0527,0.0558,
足立 (Adachi),2013-01-28,04:01～05:00,0.0598,0.0534,0.0561,
足立 (Adachi),2013-01-28,03:01～04:00,0.0595,0.0528,0.0560,
足立 (Adachi),2013-01-28,02:01～03:00,0.0597,0.0532,0.0561,
足立 (Adachi),2013-01-28,01:01～02:00,0.0586,0.0527,0.0558,
足立 (Adachi),2013-01-28,00:01～01:00,0.0590,0.0521,0.0559,
